Weather History for CVBB - March, 2014

Change the Weather History Date:

Wednesday, March 5, 2014

  Actual Average Record
Temperature  
Mean Temperature 44 °F -  
Max Temperature 51 °F - - ()
Min Temperature 37 °F - - ()
Degree Days  
Heating Degree Days 21    
Moisture  
Dew Point 43 °F    
Average Humidity 96    
Maximum Humidity 99    
Minimum Humidity 87    
Precipitation  
Precipitation 0.65 in - - ()
Sea Level Pressure  
Sea Level Pressure 29.61 in    
Wind  
Wind Speed 2 mph ()    
Max Wind Speed 5 mph    
Max Gust Speed -    
T = Trace of Precipitation, MM = Missing Value Source: Averaged Metar Reports

Daily Weather History Graph

Daily Weather History Graph

Search for Another Location

Airport or City:

Trip Planner

Search our weather history database for the weather conditions in past years. The results will help you decide how hot, cold, wet, or windy it might be!

Date:

Astronomy

Mar. 05, 2014 Rise Set
Actual Time 6:45 AM PST 6:01 PM PST
Civil Twilight 6:14 AM PST 6:33 PM PST
Nautical Twilight 5:37 AM PST 7:10 PM PST
Astronomical Twilight 5:00 AM PST 7:47 PM PST
Moon 8:48 AM PST (3/5) 11:45 PM PST (3/5)
Length of Visible Light 12h 19m
Length of Day
11h 15m
Waxing Crescent, 24% of the Moon is Illuminated
Mar 5
Waxing Crescent
Mar 8
First Quarter
Mar 16
Full
Mar 23
Last Quarter
Mar 30
New

Hourly Weather History & Observations

Time (PST) Temp. Windchill Dew Point Humidity Pressure Visibility Wind Dir Wind Speed Gust Speed Precip Events Conditions
12:00 AM 37.8 °F - 37.6 °F 99% 29.83 in - NNW 1.2 mph - 0.04 in   Unknown
1:00 AM 37.9 °F - 37.8 °F 99% 29.81 in - Calm Calm - 0.04 in   Unknown
2:00 AM 38.1 °F - 37.9 °F 99% 29.78 in - Calm Calm - 0.10 in   Unknown
3:00 AM 38.5 °F - 38.3 °F 99% 29.75 in - NNW 2.3 mph - 0.09 in   Unknown
4:00 AM 38.5 °F 36.1 °F 38.3 °F 99% 29.70 in - North 3.5 mph - 0.02 in   Unknown
5:00 AM 38.8 °F - 38.7 °F 99% 29.65 in - Calm Calm - 0.05 in   Unknown
6:00 AM 40.5 °F - 40.3 °F 99% 29.65 in - West 1.2 mph - 0.01 in   Unknown
7:00 AM 39.4 °F 36.1 °F 39.2 °F 99% 29.58 in - East 4.6 mph - 0.10 in   Unknown
8:00 AM 40.6 °F - 40.5 °F 99% 29.63 in - West 1.2 mph - 0.03 in   Unknown
9:00 AM 41.5 °F - 41.4 °F 99% 29.64 in - West 1.2 mph - 0.06 in   Unknown
10:00 AM 42.4 °F 40.7 °F 42.3 °F 99% 29.65 in - North 3.5 mph - 0.07 in   Unknown
11:00 AM 45.0 °F 43.5 °F 44.8 °F 99% 29.66 in - ENE 3.5 mph - 0.00 in   Unknown
12:00 PM 48.9 °F - 47.3 °F 94% 29.65 in - SE 4.6 mph - N/A   Unknown
1:00 PM 49.3 °F - 46.6 °F 90% 29.65 in - NNE 4.6 mph - N/A   Unknown
2:00 PM 50.5 °F - 48.2 °F 92% 29.63 in - NE 2.3 mph - N/A   Unknown
3:00 PM 51.4 °F - 47.7 °F 87% 29.59 in - East 3.5 mph - N/A   Unknown
4:00 PM 50.9 °F - 47.7 °F 89% 29.57 in - ENE 2.3 mph - N/A   Unknown
5:00 PM 50.2 °F - 47.3 °F 90% 29.52 in - NE 2.3 mph - N/A   Unknown
6:00 PM 49.3 °F - 47.1 °F 92% 29.49 in - East 2.3 mph - N/A   Unknown
7:00 PM 48.9 °F - 45.5 °F 88% 29.46 in - ESE 3.5 mph - N/A   Unknown
8:00 PM 47.3 °F - 46.0 °F 95% 29.45 in - East 2.3 mph - 0.01 in   Unknown
9:00 PM 46.8 °F - 45.9 °F 97% - - East 3.5 mph - N/A   Unknown
10:00 PM 46.2 °F 44.1 °F 45.3 °F 97% 29.37 in - East 4.6 mph - 0.05 in   Unknown
11:00 PM 45.9 °F - 45.3 °F 98% 29.38 in - SSE 2.3 mph - 0.02 in   Unknown